When you browse on this site, cookies collect data to enhance your experience and personalize the content and advertising you see.
Visit our Privacy Policy to learn more. By continuing to use the site, you agree to this use of cookies and data.
  • En España
  • Lista de países
  • Para 7 días
  • Temperatura del agua
  • El tiempo en el mapa
  • Informadores
  • user-avatar
    Iniciar sesión

    Tiempo cada hora Booué

    Hoy, 31 Mayo, Domingo

    Tiempo Temperatura Precipitaciones Viento Presión Humedad
    00:00 +23°C° 2.8 mm 0 mps 735 mmHg 97%
    01:00 +23°C° 0 mm 0 mps 735 mmHg 97%
    02:00 +22°C° 0.2 mm 0 mps 734 mmHg 98%
    03:00 +22°C° 0.2 mm 0 mps 734 mmHg 98%
    04:00 +22°C° 0.2 mm 0 mps 733 mmHg 98%
    05:00 +22°C° 0.1 mm 0 mps 734 mmHg 98%
    06:00 +22°C° 0.1 mm 0 mps 735 mmHg 97%
    07:00 +23°C° 0.1 mm 0 mps 735 mmHg 97%
    08:00 +24°C° 0 mm 0 mps 736 mmHg 90%
    09:00 +26°C° 0 mm 0 mps 736 mmHg 82%
    10:00 +28°C° 0 mm 0 mps 736 mmHg 75%
    11:00 +29°C° 0.5 mm 0 mps 736 mmHg 73%
    12:00 +30°C° 0.5 mm 0 mps 735 mmHg 71%
    13:00 +30°C° 0.5 mm 0 mps 735 mmHg 69%
    14:00 +29°C° 1.7 mm 0 mps 734 mmHg 76%
    15:00 +28°C° 1.7 mm 0 mps 733 mmHg 83%
    16:00 +26°C° 1.7 mm 0 mps 733 mmHg 90%
    17:00 +25°C° 0.3 mm 0 mps 733 mmHg 91%
    18:00 +27°C° 0.3 mm 1 mps 734 mmHg 93%
    19:00 +26°C° 0.3 mm 1 mps 735 mmHg 95%
    20:00 +26°C° 0.3 mm 1 mps 735 mmHg 95%
    21:00 +24°C° 0.3 mm 0 mps 735 mmHg 95%
    22:00 +23°C° 0.3 mm 0 mps 735 mmHg 96%
    23:00 +23°C° 0 mm 0 mps 735 mmHg 96%

    Mañana, 1 Junio, Lunes

    Tiempo Temperatura Precipitaciones Viento Presión Humedad
    00:00 +23°C° 0 mm 0 mps 735 mmHg 97%
    01:00 +23°C° 0 mm 0 mps 736 mmHg 98%
    02:00 +22°C° 0.1 mm 0 mps 735 mmHg 98%
    03:00 +22°C° 0.1 mm 0 mps 735 mmHg 98%
    04:00 +22°C° 0.1 mm 0 mps 734 mmHg 98%
    05:00 +22°C° 0 mm 0 mps 735 mmHg 98%
    06:00 +23°C° 0 mm 0 mps 735 mmHg 98%
    07:00 +23°C° 0 mm 0 mps 736 mmHg 97%
    08:00 +25°C° 0 mm 0 mps 736 mmHg 89%
    09:00 +28°C° 0 mm 1 mps 736 mmHg 81%
    10:00 +30°C° 0 mm 1 mps 736 mmHg 73%
    11:00 +31°C° 0.1 mm 1 mps 736 mmHg 70%
    12:00 +32°C° 0.1 mm 1 mps 735 mmHg 67%
    13:00 +33°C° 0.1 mm 1 mps 735 mmHg 65%
    14:00 +31°C° 2.6 mm 1 mps 734 mmHg 74%
    15:00 +29°C° 2.6 mm 1 mps 733 mmHg 84%
    16:00 +27°C° 2.6 mm 1 mps 733 mmHg 93%
    17:00 +26°C° 1.6 mm 1 mps 733 mmHg 94%
    18:00 +24°C° 1.6 mm 0 mps 734 mmHg 95%
    19:00 +23°C° 1.6 mm 0 mps 734 mmHg 96%
    20:00 +23°C° 0.1 mm 0 mps 734 mmHg 96%
    21:00 +23°C° 0.1 mm 0 mps 735 mmHg 96%
    22:00 +23°C° 0.1 mm 0 mps 735 mmHg 96%
    23:00 +25°C° 0 mm 1 mps 735 mmHg 97%

    Pasado mañana, 2 Junio, Martes

    Tiempo Temperatura Precipitaciones Viento Presión Humedad
    00:00 +25°C° 0 mm 1 mps 735 mmHg 97%
    01:00 +25°C° 0 mm 1 mps 735 mmHg 98%
    02:00 +25°C° 0 mm 1 mps 735 mmHg 98%
    03:00 +24°C° 0 mm 1 mps 735 mmHg 98%
    04:00 +22°C° 0 mm 0 mps 735 mmHg 98%
    05:00 +22°C° 0.2 mm 0 mps 735 mmHg 97%
    06:00 +22°C° 0.2 mm 0 mps 735 mmHg 97%
    07:00 +23°C° 0.2 mm 0 mps 736 mmHg 97%
    08:00 +24°C° 0 mm 0 mps 736 mmHg 91%
    09:00 +27°C° 0 mm 1 mps 736 mmHg 85%
    10:00 +29°C° 0 mm 1 mps 737 mmHg 79%
    11:00 +30°C° 0 mm 1 mps 736 mmHg 74%
    12:00 +31°C° 0 mm 1 mps 735 mmHg 69%
    13:00 +32°C° 0 mm 1 mps 735 mmHg 63%
    14:00 +32°C° 0 mm 1 mps 734 mmHg 63%
    15:00 +32°C° 0 mm 1 mps 733 mmHg 63%
    16:00 +32°C° 0 mm 1 mps 733 mmHg 63%
    17:00 +30°C° 1.1 mm 1 mps 733 mmHg 72%
    18:00 +28°C° 1.1 mm 1 mps 733 mmHg 81%
    19:00 +27°C° 1.1 mm 1 mps 734 mmHg 90%
    20:00 +26°C° 2.6 mm 1 mps 734 mmHg 92%
    21:00 +26°C° 2.6 mm 1 mps 735 mmHg 94%
    22:00 +26°C° 2.6 mm 1 mps 735 mmHg 95%
    23:00 +25°C° 0.1 mm 1 mps 735 mmHg 95%

    3 Junio, Miércoles

    Tiempo Temperatura Precipitaciones Viento Presión Humedad
    00:00 +23°C° 0.1 mm 0 mps 735 mmHg 96%
    01:00 +23°C° 0.1 mm 0 mps 735 mmHg 96%
    02:00 +23°C° 0 mm 0 mps 734 mmHg 96%
    03:00 +23°C° 0 mm 0 mps 734 mmHg 97%
    04:00 +22°C° 0 mm 0 mps 734 mmHg 97%
    05:00 +23°C° 0 mm 0 mps 734 mmHg 97%
    06:00 +25°C° 0 mm 1 mps 735 mmHg 97%
    07:00 +25°C° 0 mm 1 mps 735 mmHg 97%
    08:00 +27°C° 0 mm 1 mps 735 mmHg 89%
    09:00 +28°C° 0 mm 1 mps 736 mmHg 81%
    10:00 +30°C° 0 mm 1 mps 736 mmHg 74%
    11:00 +31°C° 0 mm 1 mps 735 mmHg 69%
    12:00 +32°C° 0 mm 1 mps 734 mmHg 64%
    13:00 +33°C° 0 mm 1 mps 734 mmHg 59%
    14:00 +32°C° 1 mm 1 mps 733 mmHg 66%
    15:00 +31°C° 1 mm 1 mps 733 mmHg 73%
    16:00 +30°C° 1 mm 1 mps 732 mmHg 79%
    17:00 +29°C° 3.7 mm 1 mps 733 mmHg 85%
    18:00 +27°C° 3.7 mm 1 mps 733 mmHg 90%
    19:00 +25°C° 3.7 mm 1 mps 734 mmHg 95%
    20:00 +25°C° 0.4 mm 1 mps 734 mmHg 96%
    21:00 +25°C° 0.4 mm 1 mps 734 mmHg 97%
    22:00 +25°C° 0.4 mm 1 mps 735 mmHg 97%
    23:00 +25°C° 0 mm 1 mps 735 mmHg 97%

    4 Junio, Jueves

    Tiempo Temperatura Precipitaciones Viento Presión Humedad
    00:00 +24°C° 0 mm 1 mps 734 mmHg 97%
    01:00 +22°C° 0 mm 0 mps 734 mmHg 97%
    02:00 +22°C° 0 mm 0 mps 734 mmHg 97%
    03:00 +22°C° 0 mm 0 mps 734 mmHg 97%
    04:00 +22°C° 0 mm 0 mps 734 mmHg 98%
    05:00 +22°C° 0 mm 0 mps 734 mmHg 97%
    06:00 +22°C° 0 mm 0 mps 735 mmHg 97%
    07:00 +23°C° 0 mm 0 mps 735 mmHg 97%
    08:00 +24°C° 0 mm 0 mps 736 mmHg 92%
    09:00 +25°C° 0 mm 0 mps 736 mmHg 87%
    10:00 +26°C° 0 mm 0 mps 736 mmHg 83%
    11:00 +26°C° 0 mm 0 mps 736 mmHg 79%
    12:00 +27°C° 0 mm 0 mps 735 mmHg 76%
    13:00 +28°C° 0 mm 0 mps 734 mmHg 72%
    14:00 +28°C° 0 mm 0 mps 734 mmHg 70%
    15:00 +29°C° 0 mm 0 mps 733 mmHg 68%
    16:00 +29°C° 0 mm 0 mps 733 mmHg 66%
    17:00 +28°C° 0.5 mm 0 mps 733 mmHg 73%
    18:00 +26°C° 0.5 mm 0 mps 733 mmHg 80%
    19:00 +25°C° 0.5 mm 0 mps 734 mmHg 87%
    20:00 +24°C° 3.9 mm 0 mps 734 mmHg 90%
    21:00 +26°C° 3.9 mm 1 mps 735 mmHg 93%
    22:00 +25°C° 3.9 mm 1 mps 735 mmHg 96%
    23:00 +25°C° 0.7 mm 1 mps 735 mmHg 96%

    5 Junio, Viernes

    Tiempo Temperatura Precipitaciones Viento Presión Humedad
    00:00 +23°C° 0.7 mm 0 mps 735 mmHg 97%
    01:00 +22°C° 0.7 mm 0 mps 735 mmHg 97%
    02:00 +22°C° 0 mm 0 mps 735 mmHg 97%
    03:00 +22°C° 0 mm 0 mps 734 mmHg 97%
    04:00 +22°C° 0 mm 0 mps 734 mmHg 97%
    05:00 +22°C° 0 mm 0 mps 735 mmHg 97%
    06:00 +22°C° 0 mm 0 mps 735 mmHg 97%
    07:00 +23°C° 0 mm 0 mps 735 mmHg 96%
    08:00 +24°C° 0 mm 0 mps 735 mmHg 92%
    09:00 +25°C° 0 mm 0 mps 736 mmHg 88%
    10:00 +26°C° 0 mm 0 mps 736 mmHg 84%
    11:00 +26°C° 0 mm 0 mps 735 mmHg 85%
    12:00 +25°C° 0 mm 0 mps 735 mmHg 86%
    13:00 +25°C° 0 mm 0 mps 734 mmHg 86%
    14:00 +26°C° 0 mm 0 mps 734 mmHg 80%
    15:00 +28°C° 0 mm 0 mps 733 mmHg 74%
    16:00 +29°C° 0 mm 0 mps 733 mmHg 67%
    17:00 +27°C° 0 mm 0 mps 733 mmHg 73%
    18:00 +26°C° 0 mm 0 mps 734 mmHg 79%
    19:00 +25°C° 0 mm 0 mps 734 mmHg 84%
    20:00 +24°C° 0 mm 0 mps 734 mmHg 86%
    21:00 +24°C° 0 mm 0 mps 735 mmHg 88%
    22:00 +24°C° 0 mm 0 mps 736 mmHg 89%
    23:00 +23°C° 0.1 mm 0 mps 735 mmHg 92%
    Mostrar más